Location: Street
(51.1247°N, 2.7429°W)
Time: 10:18:29
(UTC+01:00)

UWE-3 - Pass Details

Date: 03 April 2023
Orbit: 576 x 669 km, 97.7° (Epoch: 02 June)

Event Time Altitude Azimuth Distance (km) Brightness Sun altitude
Rises 04:45:16 0° 10° (N) 2,985 ? -18.0°
Reaches altitude 10° 04:47:33 10° 6° (N) 2,055 ? -17.7°
Maximum altitude 04:51:55 54° 290° (WNW) 777 ? -17.1°
Enters shadow 04:53:39 32° 230° (SW) 1,077 ? -16.8°
